Starlink 11568

operational
NORAD ID: 63307 Int'l Des: 2025-057 Owner: SPXS Country: US Constellation: starlink
LEOCIRCULAR

Über Starlink 11568

Beschreibung wird geladen...

Live-Position

3D-Globus wird geladen...

Nächste Überflüge

Höhenverlauf

Altitude vs Time

uPlot chart will show altitude changes over time

Zweizeiliger Elementsatz

1 63307U 25057A 25259.23254123 .00291315 00000-0 21936-2 0 9997
2 63307 42.9994 235.7789 0001350 268.7476 91.3237 15.70856707 29741
Epoch: 16. Sept. 2025 • Age: 16 hours

Aktueller Status

Höhe 358.9 km
Geschwindigkeit 7.70 km/s
Subsatellitenpunkt 41.16°N, 12.71°W
Startdatum 18. März 2025
Alter 0.4 years
Typ internet

Technische Details

Klassifizierung Payload
Masse 960.00 kg
Trockenmasse 910.00 kg
Gesamtmasse 960.00 kg
Länge 0.30 m
Durchmesser 4.10 m
Spannweite 29.00 m
Form Box + pan
Hersteller SPXS
Bus-Typ Starlink V2MD
Phasenstatus In Orbit
Besitzer/Staat SPXS/US

Große Konstellationen

Loading constellations...